Regional Weather Roundup
Issued by NWS

Home | Current Version | Previous Version | Text Only | Print | Product List | Glossary On
Versions: 1 2 3 4 5 6 7 8 9 10 11 12 13 14 15 16 17 18 19 20 21 22 23 24 25 26 27 28 29 30 31 32 33 34 35 36 37 38 39 40 41 42 43 44 45 46 47 48 49 50
000
ASUS43 KDTX 282210
RWRMI
MICHIGAN HOURLY REGIONAL WEATHER ROUNDUP
NATIONAL WEATHER SERVICE DETROIT/PONTIAC MI
500 PM EST WED JAN 28 2015

NOTE: "FAIR" INDICATES FEW OR NO CLOUDS BELOW 12,000 FEET WITH NO
SIGNIFICANT WEATHER AND/OR OBSTRUCTION TO VISIBILITY.

MIZ047>049-052>055-059>063-066>070-074>076-081>083-282300-
SOUTHEAST LOWER MICHIGAN

CITY           SKY/WX    TMP DP  RH WIND       PRES   REMARKS
ADRIAN         MOCLDY    24  13  62 S9        30.25F
ALMA           CLOUDY    29  12  49 S6        30.20S
ANN ARBOR      MOCLDY    27  14  58 S8        30.23F
BAD AXE        PTCLDY    26  10  51 SE7       30.21F
DETROIT CITY   CLEAR     25  13  60 S9        30.27F
DETROIT        MOCLDY    25  14  63 SE9       30.26F
FLINT          PTCLDY    31  12  45 S10       30.21F
GROSSE ILE     PTCLDY    23  16  74 S7        30.26F
HILLSDALE      MOCLDY    25  10  52 CALM      30.19F
HOWELL         MOCLDY    27   7  43 S12       30.21R

CITY           SKY/WX    TMP DP  RH WIND       PRES   REMARKS
JACKSON        CLOUDY    26   7  44 S10       30.20F
LAMBERTVILLE   MOCLDY    28  12  50 S3        30.26F
LANSING        CLOUDY    30  10  43 S14       30.19F
LAPEER         NOT AVBL
MASON          CLOUDY    27   8  44 S12       30.20F
MT. CLEMENS    MOCLDY    23  15  69 S13       30.24F
PONTIAC        CLOUDY    28   7  41 S12       30.20F
PORT HOPE        N/A     27   7  42 SE8       30.21F
PORT HURON     CLEAR     25  10  54 S8        30.27S
TRI CITIES     MOCLDY    30  12  47 S9        30.21F
YPSILANTI      MOCLDY    29  15  56 SE12      30.24F
$$
MIZ043>046-050>051-056>058-064>065-071>073-077>080-282300-
SOUTHWEST LOWER MICHIGAN

CITY           SKY/WX    TMP DP  RH WIND       PRES   REMARKS
BATTLE CREEK   MOCLDY    30   7  37 S16       30.19S
BENTON HARBOR  PTCLDY    29  12  49 SE12      30.14F
BIG RAPIDS     CLOUDY    30  10  43 S7        30.14S
COLDWATER      MOCLDY    26   6  42 SE9       30.20S
HOLLAND        MOCLDY    32  11  41 SE8       30.15F
GRAND RAPIDS   CLOUDY    31   9  39 S13       30.17F
KALAMAZOO      MOCLDY    29   8  41 SE13      30.18F
MARSHALL       MOCLDY    27   6  41 S9        30.20S
MUSKEGON       CLOUDY    31   9  39 SE15      30.14F
$$
MIZ016>042-282300-
NORTHERN LOWER MICHIGAN

CITY           SKY/WX    TMP DP  RH WIND       PRES   REMARKS
ALPENA         MOCLDY    27  15  61 SE8       30.17F
BEAVER ISLAND  CLOUDY    27  17  65 CALM      30.12F
BELLAIRE       CLOUDY    32  11  42 S6        30.14F
CADILLAC       CLOUDY    27  14  58 SE7       30.10S
CHARLEVOIX     CLOUDY    29  12  48 CALM      30.17S
FRANKFORT      CLOUDY    31  20  65 SE9       30.11F
GAYLORD        CLOUDY    27   9  46 S7        30.11S
GRAYLING       CLOUDY    29   8  41 S7        30.14R
HARBOR SPRINGS CLOUDY    28   3  34 CALM      30.14S
HOUGHTON LAKE    N/A    N/A N/A N/A MISG      30.15R
MANISTEE       CLOUDY    30  10  43 S7        30.12F
OSCODA         MOCLDY    26  12  54 S7        30.20S
PELLSTON       CLOUDY    28   7  41 SE5       30.14F
TRAVERSE CITY  CLOUDY    32  17  54 VRB3      30.13S
$$
MIZ007>008-015-282300-
EASTERN UPPER MICHIGAN

CITY           SKY/WX    TMP DP  RH WIND       PRES   REMARKS
KINROSS        CLOUDY    25  12  58 SE10      30.13F
MACKINAC ISLAN MOCLDY    27  10  49 SE6       30.14S
NEWBERRY       CLOUDY    24  19  78 S13       30.09F
S. S. MARIE    CLOUDY    24   9  52 SE8       30.14S
$$
MIZ004>006-011>014-085-282300-
CENTRAL UPPER MICHIGAN

CITY           SKY/WX    TMP DP  RH WIND       PRES   REMARKS
MANISTIQUE     CLOUDY    29  25  86 S15       30.08F
ESCANABA       CLOUDY    28  23  80 S7        30.04F
MENOMINEE      CLOUDY    30  25  80 S10       30.03F
SAWYER-GWINN   MOCLDY    28  21  74 S16       29.95F
$$
MIZ001>003-009>011-084-282300-
WESTERN UPPER MICHIGAN

CITY           SKY/WX    TMP DP  RH WIND       PRES   REMARKS
IRON MOUNTAIN  MOCLDY    29  19  66 SE15      29.95F
HOUGHTON       CLOUDY    29  22  75 SE10      29.88F
COPPER HARBOR    N/A     30  24  78 SW18G30   29.89F
IRONWOOD       CLOUDY    32  23  69 S12       29.81F
$$

ABBREVIATIONS USED IN REMARKS
   TC - TEMPERATURE IN CELSIUS
  WCI - WIND CHILL INDEX
   HX - HEAT INDEX
  VSB - VISIBILITY



USA.gov is the U.S. government's official web portal to all federal, state and local government web resources and services.